Wetbulb
75.20 75.10 74.49 70.69 56.43 54.91 52.06 54.35 58.53 58.97 59.25 62.37 64.53 62.28 60.66 63.13 61.23 55.09 70.32 72.84 75.65 76.41 77.72 78.55 79.39 79.52 79.07 78.60 78.78 78.73 78.55 78.15 78.39 78.71 78.80 78.54 78.90 78.28 77.66 77.56 77.40 77.10 76.81 76.51 76.62 76.43 76.85 76.64 76.51
74.44 73.65 69.47 61.99 53.44 48.46 51.64 58.17 56.29 58.39 62.47 64.90 65.73 65.54 64.23 63.00 69.36 68.56 70.13 74.53 75.83 76.71 77.24 77.57 79.19 79.56 79.45 79.07 78.89 78.69 78.41 78.03 78.13 77.94 78.05 78.40 78.53 78.17 77.82 77.69 77.35 77.18 77.00 76.79 76.73 76.43 77.00 76.43 76.67
74.82 69.81 62.56 58.04 55.15 49.60 52.18 58.06 58.89 61.84 63.59 62.19 63.07 64.58 65.13 65.67 69.89 69.23 73.33 75.02 75.71 75.96 76.69 77.03 79.72 79.63 79.34 79.35 78.90 78.82 78.54 78.23 77.86 77.43 77.05 77.21 77.44 77.79 77.43 77.02 76.83 76.59 76.67 76.32 76.62 76.57 76.27 76.74 76.11
70.02 63.08 60.44 55.13 52.27 56.70 57.62 59.44 60.88 60.84 62.87 62.72 61.56 60.54 64.82 71.04 70.61 72.68 74.43 75.10 75.21 75.81 76.37 78.31 79.63 79.90 79.69 79.50 79.20 78.94 78.63 78.53 78.13 77.43 76.97 76.71 77.51 77.41 77.52 77.21 76.86 76.64 76.32 76.32 76.18 76.17 76.24 76.14 76.21
64.68 60.05 52.88 52.50 53.09 58.48 60.47 61.62 62.10 59.08 61.69 62.40 62.26 60.79 64.06 71.40 73.84 73.95 74.11 74.86 74.58 75.20 75.81 77.56 79.45 79.82 79.96 79.77 79.41 79.12 78.76 78.24 77.64 77.18 76.94 76.70 76.82 77.39 77.13 76.07 76.60 76.48 76.20 76.53 76.43 76.14 76.35 75.99 76.32
59.43 58.76 50.67 48.66 52.77 58.71 61.65 62.75 61.32 59.98 62.40 62.90 62.00 63.54 64.01 71.31 72.82 73.57 74.06 73.98 74.79 74.95 76.50 76.84 79.06 79.49 79.81 79.91 79.14 78.80 78.04 77.47 77.35 77.14 76.94 76.82 77.05 76.88 76.30 76.35 76.48 76.54 76.40 76.25 76.38 75.90 76.56 76.54 76.27
58.18 55.49 52.80 52.70 53.93 56.75 59.77 63.07 59.28 60.62 61.84 61.31 63.82 61.90 63.79 69.47 73.43 73.73 74.56 74.39 74.55 75.98 76.26 75.92 76.95 78.32 79.42 79.83 79.36 79.06 78.42 78.03 78.24 77.63 77.48 77.10 77.15 76.66 76.17 76.86 76.52 76.54 76.09 76.11 76.14 75.88 76.45 76.13 76.48
59.51 56.81 54.81 54.41 53.82 54.63 61.00 61.61 63.03 61.97 60.57 66.21 66.11 60.61 61.74 67.86 73.44 73.91 74.23 73.35 73.90 75.19 75.37 75.11 75.26 75.45 76.98 78.00 79.61 79.35 78.73 78.35 77.64 77.64 77.46 77.38 77.37 76.62 76.81 77.35 77.08 76.21 76.09 76.41 76.20 76.23 76.47 75.81 75.82
61.20 51.55 51.01 53.73 55.29 56.91 60.45 60.47 63.73 65.40 63.38 64.85 65.36 65.94 68.47 72.88 73.90 72.76 72.13 72.39 73.00 74.24 74.57 74.49 74.35 74.48 75.02 76.03 77.62 79.01 78.60 77.83 77.56 77.47 77.76 77.04 74.25 73.73 75.53 76.38 76.31 76.11 76.33 76.07 76.07 76.24 76.40 76.19 75.40
52.62 48.75 53.21 58.18 59.49 57.94 61.95 62.34 62.36 61.33 61.22 62.03 64.54 69.83 71.97 72.87 72.37 71.12 70.52 70.31 70.87 71.58 72.78 73.45 73.68 74.36 74.54 76.62 75.15 75.88 75.45 75.14 75.00 75.22 74.91 74.37 72.83 72.24 74.87 76.13 76.40 76.45 76.37 76.26 75.99 76.31 76.31 76.10 73.50
53.42 50.21 55.90 58.33 61.06 61.02 61.09 62.26 63.69 59.91 57.57 59.88 61.69 68.22 70.94 71.51 71.52 70.76 70.85 70.59 70.72 71.92 72.69 73.27 73.59 73.63 73.48 74.52 73.89 74.17 73.94 74.39 74.66 74.31 73.84 73.19 72.54 72.97 74.06 72.96 73.58 73.17 75.55 73.41 75.08 74.64 74.31 73.31 72.46
48.83 54.09 55.29 56.19 57.69 59.76 58.96 59.87 59.53 60.40 58.59 63.21 67.29 70.01 70.51 70.15 70.50 71.09 70.92 71.28 71.45 71.36 72.47 72.99 73.49 73.21 72.78 73.48 72.47 72.65 71.86 72.65 72.33 72.15 71.80 71.97 70.93 70.93 71.42 71.61 71.85 71.98 72.18 71.89 72.50 73.25 72.98 72.88 72.67
48.74 50.80 53.21 56.10 58.16 58.36 60.72 59.22 59.84 59.11 64.91 68.49 69.57 69.63 68.75 67.58 68.71 70.18 71.43 71.88 72.17 71.85 72.65 72.72 73.26 73.08 73.18 72.49 72.24 72.04 71.65 72.06 72.08 71.76 71.73 71.58 69.93 69.32 69.89 70.52 70.90 71.11 71.80 71.78 71.22 71.80 71.94 71.86 72.07
50.90 52.66 54.40 55.21 58.15 59.40 57.33 58.12 60.28 61.13 68.59 68.18 67.81 65.79 66.15 66.05 66.00 67.34 69.84 69.62 71.25 72.28 72.47 72.65 72.81 72.91 72.18 71.90 70.70 71.06 71.04 71.26 71.22 71.63 71.49 70.65 69.39 68.78 67.45 68.15 69.86 70.18 71.13 71.47 71.44 71.24 70.90 71.13 71.35
53.92 51.43 53.71 54.90 56.33 56.69 57.46 55.34 54.24 62.19 67.90 65.66 65.56 65.88 66.52 66.78 66.58 65.86 67.79 69.25 70.68 70.88 71.95 72.12 72.25 71.73 71.36 70.76 70.04 69.07 68.69 70.10 70.09 70.45 70.99 70.77 69.09 68.04 67.68 67.27 68.04 69.41 70.20 70.74 70.88 70.99 70.45 70.13 70.51
50.99 49.82 47.47 53.70 56.50 57.34 54.96 48.77 58.06 64.57 65.14 64.19 65.19 66.29 66.09 64.35 64.45 65.61 68.16 69.35 70.08 70.44 71.33 72.11 73.31 71.77 70.77 69.21 69.12 68.28 66.82 66.76 69.19 69.75 68.51 70.01 69.09 67.72 67.03 67.54 68.53 69.10 69.44 70.25 69.78 69.73 69.07 69.41 69.64
45.97 42.84 46.95 52.06 56.73 56.07 54.52 51.20 58.73 64.44 64.80 63.53 62.36 63.13 64.42 63.04 64.68 66.93 68.11 68.31 68.90 69.96 70.92 71.54 72.06 71.34 70.52 69.98 68.85 68.46 67.44 67.72 68.40 68.96 67.18 66.44 68.68 68.78 67.99 68.28 68.80 68.96 68.40 69.01 69.28 68.92 68.80 67.81 68.28
43.52 46.37 48.42 50.17 54.03 54.63 53.02 53.81 59.43 63.23 63.54 60.99 60.06 61.18 62.27 63.14 63.39 66.32 69.46 69.74 68.78 67.98 70.16 71.17 71.61 71.09 70.81 70.65 69.66 69.44 68.69 68.62 68.83 68.89 68.40 67.41 67.41 69.23 68.62 69.01 68.85 68.47 67.92 68.24 67.76 68.01 68.67 68.15 68.87
49.26 47.82 47.09 50.53 54.69 53.09 51.13 53.39 57.52 60.57 61.01 57.98 57.18 59.47 60.80 63.32 63.90 62.52 67.54 66.76 66.69 67.12 67.48 69.84 70.16 70.48 70.56 68.51 67.65 66.77 66.59 66.73 67.11 68.10 68.75 69.02 69.54 69.92 68.67 68.94 68.89 67.74 67.68 67.63 68.13 66.57 66.39 67.29 68.22
48.45 46.38 46.13 49.50 53.52 52.89 51.06 51.94 56.15 58.16 58.40 58.93 57.08 58.12 61.02 62.11 63.38 62.11 63.03 65.83 65.29 65.01 67.67 70.18 69.98 70.30 69.70 68.87 67.88 67.36 66.84 66.46 67.07 67.07 67.45 68.35 69.14 69.43 69.32 69.16 68.28 67.99 67.24 66.86 66.98 66.94 65.69 65.56 67.65
45.54 43.90 44.63 46.84 50.65 51.67 51.16 47.99 53.06 57.05 59.38 59.34 58.08 59.58 61.40 62.34 62.37 59.88 61.27 62.23 63.61 65.53 67.80 66.82 69.53 70.10 69.38 69.02 67.63 66.82 66.57 65.54 64.63 64.82 64.94 66.69 68.64 68.17 68.58 69.03 67.88 67.52 67.72 66.91 66.64 66.82 65.95 64.68 65.91
41.98 48.46 47.96 46.93 45.51 41.62 48.15 38.45 46.54 51.15 54.27 57.91 58.40 58.27 58.88 61.70 63.86 62.91 62.29 61.40 62.52 64.62 69.34 68.40 70.17 69.20 69.00 68.30 66.60 65.07 63.90 63.23 63.57 63.31 64.66 65.54 66.36 67.34 67.59 67.48 67.25 67.05 67.45 67.04 67.18 68.15 66.21 64.68 63.96
46.71 50.16 47.12 47.14 43.42 40.93 43.22 38.99 41.10 50.00 49.89 53.63 56.97 57.47 58.81 60.55 63.77 63.73 63.74 63.00 63.15 64.76 65.15 69.52 68.64 67.70 67.65 67.16 65.82 64.62 62.90 63.52 64.15 64.40 64.18 64.81 65.43 65.99 67.16 67.21 67.07 66.34 66.70 66.80 66.68 66.84 66.28 65.72 65.04
52.31 46.74 43.95 42.72 39.91 36.36 40.15 39.77 40.42 46.64 49.75 51.93 56.51 58.65 58.95 60.94 62.48 64.25 64.61 63.91 64.02 66.55 68.03 69.57 68.08 67.16 67.34 66.22 64.62 63.30 62.04 61.64 62.75 63.02 63.13 64.24 64.80 65.28 66.03 67.18 66.57 66.84 66.57 66.48 66.57 66.69 66.69 66.64 65.92
45.18 39.68 34.83 34.59 34.51 35.10 40.56 42.05 44.19 51.47 54.35 55.49 55.48 58.01 59.68 61.49 63.20 63.26 62.48 62.54 64.32 66.17 69.81 68.93 67.45 66.22 65.48 64.80 64.17 63.45 62.58 63.34 63.49 65.34 64.75 63.34 63.63 64.29 65.04 65.94 65.87 65.94 66.46 66.98 66.86 66.16 65.76 66.03 65.83
43.17 41.08 36.01 31.17 31.82 35.80 41.63 38.12 45.66 54.82 56.53 58.28 57.46 63.51 63.20 64.89 65.40 64.32 64.38 64.37 67.02 69.16 68.77 68.21 66.13 64.94 64.56 64.55 64.13 63.64 63.70 63.72 64.16 63.92 63.99 64.08 63.52 64.18 65.27 65.74 66.14 66.57 67.09 67.00 66.59 66.14 66.12 66.55 66.25
44.57 40.70 42.02 36.56 34.52 35.76 37.93 45.61 51.95 54.72 56.04 59.44 61.80 62.78 61.14 61.84 63.98 65.60 67.27 68.73 68.73 67.61 67.45 66.78 65.37 64.49 64.45 64.51 63.86 62.78 63.06 63.00 63.20 64.48 64.97 64.56 65.05 66.18 65.88 66.19 65.83 66.28 67.04 67.22 66.41 66.29 66.07 66.52 65.86
46.81 46.62 40.14 36.91 33.07 30.77 35.93 42.42 43.37 50.03 52.40 55.01 59.97 59.06 58.52 59.61 63.70 64.82 65.18 67.41 67.52 67.63 66.33 65.84 65.24 64.51 64.38 64.60 63.17 63.26 62.78 63.06 63.27 64.03 64.11 64.52 64.79 65.53 65.89 65.76 65.97 66.03 66.30 66.41 65.96 65.32 65.39 65.41 65.41
44.21 41.29 38.99 38.83 36.92 33.97 32.53 37.31 48.27 50.66 54.88 53.55 57.95 57.43 57.36 58.14 63.02 64.18 64.78 66.69 67.20 66.82 65.71 65.30 64.38 64.23 64.33 64.42 62.90 62.99 63.15 62.96 63.61 63.71 63.67 63.60 64.40 65.03 65.14 65.34 65.62 65.15 65.57 65.60 64.74 64.38 65.35 65.64 66.25
46.08 43.94 40.84 37.95 35.90 35.65 36.09 38.61 52.10 52.90 55.83 57.01 55.46 59.33 59.01 60.06 63.70 64.02 65.00 65.84 65.38 65.74 65.49 64.77 64.67 64.90 64.85 64.62 62.82 62.94 63.37 63.16 63.57 63.83 63.94 63.89 64.19 65.03 64.71 65.49 65.43 66.19 66.48 65.66 64.94 66.18 66.39 65.87 65.60
MSLP
1007.27 1007.62 1007.99 1007.94 1008.79 1009.79 1009.96 1009.65 1008.74 1007.38 1006.65 1006.38 1006.18 1006.44 1006.95 1007.45 1007.92 1009.11 1008.56 1008.82 1009.33 1010.15 1010.62 1011.01 1011.30 1011.72 1012.19 1012.47 1012.79 1013.04 1013.32 1013.58 1013.92 1014.09 1014.17 1014.38 1014.59 1014.75 1014.86 1015.13 1015.29 1015.55 1015.76 1015.96 1016.07 1016.11 1016.14 1016.10 1016.12
1006.99 1007.49 1008.01 1008.15 1009.68 1010.65 1010.71 1009.53 1008.42 1007.77 1007.47 1007.01 1006.71 1006.83 1007.20 1007.71 1007.97 1008.63 1009.17 1009.51 1009.56 1010.14 1010.70 1011.01 1011.38 1011.74 1012.15 1012.61 1012.91 1013.16 1013.43 1013.78 1014.01 1014.27 1014.45 1014.64 1014.79 1014.90 1014.97 1015.14 1015.35 1015.60 1015.75 1016.03 1016.11 1016.22 1016.24 1016.25 1016.31
1007.28 1007.18 1007.91 1009.23 1010.43 1010.85 1010.47 1008.72 1007.79 1007.49 1007.31 1007.66 1007.46 1007.57 1007.68 1008.03 1008.43 1008.79 1008.89 1009.61 1010.16 1010.75 1011.04 1011.33 1011.61 1011.97 1012.32 1012.65 1013.09 1013.40 1013.57 1013.93 1014.13 1014.38 1014.66 1014.84 1014.98 1015.07 1015.17 1015.36 1015.47 1015.69 1015.66 1016.01 1016.17 1016.24 1016.43 1016.38 1016.55
1007.21 1007.96 1008.78 1009.10 1010.21 1010.23 1009.69 1007.75 1005.94 1007.21 1007.58 1007.79 1007.67 1007.84 1007.88 1007.84 1008.18 1008.65 1009.37 1010.01 1010.45 1011.05 1011.44 1011.72 1012.02 1012.25 1012.67 1012.91 1013.20 1013.56 1013.83 1013.92 1014.21 1014.43 1014.73 1014.95 1015.13 1015.29 1015.35 1015.47 1015.64 1015.73 1015.70 1015.94 1016.17 1016.28 1016.46 1016.53 1016.72
1007.65 1008.60 1009.50 1010.14 1010.42 1010.17 1009.28 1007.71 1007.13 1007.29 1008.11 1008.20 1008.19 1008.32 1008.31 1008.63 1008.47 1009.28 1009.98 1010.61 1010.94 1011.39 1011.71 1012.12 1012.23 1012.42 1012.67 1013.03 1013.33 1013.72 1013.99 1014.05 1014.33 1014.53 1014.72 1014.97 1015.27 1015.37 1015.48 1015.61 1015.72 1015.81 1015.77 1015.89 1016.08 1016.37 1016.36 1016.71 1016.88
1007.97 1009.02 1010.31 1010.93 1010.32 1009.63 1008.86 1007.79 1007.72 1007.59 1008.04 1008.42 1008.58 1008.60 1009.18 1009.45 1009.28 1009.91 1010.43 1011.11 1011.57 1011.61 1011.77 1012.18 1012.39 1012.57 1012.83 1013.09 1013.42 1013.83 1014.10 1014.22 1014.40 1014.61 1014.77 1015.00 1015.24 1015.40 1015.40 1015.59 1015.79 1015.85 1015.88 1016.05 1016.10 1016.21 1016.37 1016.67 1017.02
1008.41 1009.42 1010.81 1010.68 1009.95 1009.18 1008.25 1007.84 1008.03 1008.01 1008.17 1008.43 1008.45 1009.05 1009.68 1009.87 1009.86 1010.01 1010.76 1011.43 1011.71 1011.78 1011.90 1012.31 1012.69 1012.82 1012.99 1013.09 1013.43 1013.74 1014.01 1014.23 1014.36 1014.62 1014.85 1015.00 1015.24 1015.47 1015.62 1015.63 1015.64 1015.80 1015.98 1016.15 1016.17 1016.23 1016.45 1016.59 1016.98
1008.17 1009.46 1010.73 1010.58 1009.90 1008.69 1007.98 1008.19 1007.62 1007.93 1008.21 1008.39 1008.06 1008.62 1009.20 1009.38 1010.09 1010.46 1011.25 1011.88 1012.35 1012.69 1012.79 1012.78 1012.98 1012.84 1012.89 1013.20 1013.36 1013.60 1013.82 1014.09 1014.34 1014.53 1014.82 1015.08 1015.16 1015.36 1015.48 1015.61 1015.72 1015.79 1015.92 1016.11 1016.19 1016.32 1016.46 1016.65 1016.98
1007.66 1008.87 1009.59 1010.05 1009.11 1007.87 1007.52 1008.00 1007.62 1007.53 1007.83 1008.20 1008.37 1008.28 1008.29 1009.37 1010.37 1011.07 1011.79 1012.14 1012.61 1012.89 1012.98 1012.85 1013.36 1013.33 1013.41 1013.43 1013.34 1013.51 1013.69 1013.99 1014.33 1014.49 1014.66 1014.99 1015.36 1015.51 1015.61 1015.68 1015.65 1015.71 1015.87 1015.91 1016.00 1016.32 1016.45 1016.78 1017.01
1007.74 1008.57 1008.12 1007.84 1007.38 1007.05 1006.99 1007.30 1006.89 1007.28 1007.76 1008.37 1008.43 1008.32 1008.83 1009.41 1010.12 1011.13 1011.81 1012.28 1012.54 1012.95 1013.26 1013.25 1013.34 1013.31 1013.49 1013.47 1013.39 1013.54 1013.76 1014.13 1014.35 1014.57 1014.72 1015.10 1015.47 1015.78 1015.81 1015.74 1015.73 1015.71 1015.79 1015.84 1015.89 1016.15 1016.41 1016.51 1017.03
1007.44 1007.52 1007.01 1006.24 1006.35 1006.20 1006.57 1006.86 1006.87 1007.17 1007.34 1007.97 1008.33 1008.63 1009.45 1010.32 1011.14 1011.28 1011.30 1011.64 1012.15 1012.64 1013.02 1013.06 1013.19 1013.27 1013.65 1013.54 1013.52 1013.66 1013.85 1014.06 1014.32 1014.41 1014.59 1014.93 1015.25 1015.53 1015.70 1015.84 1015.76 1015.82 1015.75 1015.87 1015.83 1016.04 1016.36 1016.61 1017.05
1007.01 1006.51 1006.28 1005.47 1004.45 1005.48 1005.78 1005.95 1006.08 1006.35 1006.82 1006.89 1008.56 1008.89 1009.58 1010.76 1011.30 1011.59 1012.03 1011.78 1012.14 1012.65 1012.74 1013.02 1013.02 1013.11 1013.50 1013.69 1013.81 1013.75 1013.65 1013.96 1014.20 1014.35 1014.68 1014.96 1015.43 1015.55 1015.65 1015.71 1015.71 1015.83 1015.93 1016.07 1016.11 1016.09 1016.31 1016.64 1017.03
1006.64 1006.33 1005.81 1005.31 1004.58 1004.50 1004.78 1004.99 1005.68 1006.32 1006.68 1007.16 1008.29 1009.12 1010.20 1010.75 1011.38 1011.46 1011.55 1011.73 1012.05 1012.31 1012.54 1012.70 1012.79 1012.78 1012.98 1013.49 1013.68 1013.77 1013.73 1013.83 1014.03 1014.37 1014.50 1014.88 1015.22 1015.55 1015.49 1015.59 1015.69 1015.77 1015.99 1016.00 1016.20 1016.18 1016.30 1016.41 1016.74
1006.37 1005.83 1005.23 1005.14 1004.67 1004.70 1004.67 1005.19 1005.15 1007.01 1006.91 1007.44 1008.61 1009.54 1009.17 1008.98 1009.43 1011.22 1011.46 1011.77 1011.39 1011.91 1012.31 1012.31 1012.67 1012.67 1012.50 1013.27 1013.68 1013.67 1013.54 1013.76 1014.00 1014.11 1014.37 1014.73 1015.08 1015.29 1015.60 1015.64 1015.62 1015.71 1015.78 1015.88 1015.95 1016.09 1016.15 1016.30 1016.57
1006.22 1006.07 1005.27 1004.94 1004.96 1004.85 1004.73 1005.72 1006.15 1006.82 1007.21 1008.03 1009.04 1009.66 1009.99 1009.90 1008.47 1010.09 1011.41 1011.66 1011.95 1011.60 1012.24 1012.46 1012.36 1012.74 1013.01 1013.21 1013.33 1013.40 1013.58 1013.81 1014.08 1014.14 1014.27 1014.39 1014.57 1014.92 1015.23 1015.46 1015.67 1015.52 1015.61 1015.73 1015.88 1015.87 1016.12 1016.36 1016.38
1007.23 1007.11 1006.64 1005.42 1005.12 1004.72 1004.82 1006.74 1007.21 1007.02 1007.44 1008.51 1009.30 1009.90 1010.02 1009.94 1009.79 1010.32 1011.20 1011.47 1011.90 1012.04 1011.96 1012.62 1012.59 1012.43 1013.01 1013.35 1013.35 1013.35 1013.59 1013.70 1013.77 1013.92 1014.07 1014.16 1014.31 1014.67 1014.98 1015.22 1015.30 1015.21 1015.46 1015.74 1015.92 1015.90 1016.20 1016.44 1016.52
1008.40 1007.81 1007.24 1006.31 1005.40 1005.32 1006.01 1007.28 1007.32 1007.55 1007.96 1008.77 1009.52 1009.48 1009.50 1009.75 1011.03 1010.49 1009.72 1010.59 1011.38 1012.23 1012.32 1012.25 1012.56 1012.49 1012.67 1013.02 1013.45 1013.33 1013.40 1013.46 1013.37 1013.62 1013.85 1013.85 1014.01 1014.21 1014.58 1014.80 1014.76 1014.94 1015.38 1015.65 1015.77 1015.96 1016.01 1016.46 1016.48
1008.68 1008.22 1007.44 1006.89 1006.07 1005.85 1006.66 1007.71 1008.29 1008.54 1009.06 1009.45 1009.73 1009.72 1009.65 1010.76 1011.07 1010.42 1010.07 1008.50 1009.81 1011.62 1012.63 1012.12 1012.27 1012.49 1012.51 1012.90 1013.31 1013.54 1013.56 1013.46 1013.16 1013.38 1013.50 1013.61 1013.68 1013.69 1014.16 1014.24 1014.46 1014.67 1015.28 1015.60 1015.77 1015.74 1015.95 1016.22 1016.17
1008.44 1008.25 1007.86 1006.61 1006.22 1006.26 1007.04 1007.83 1008.02 1008.64 1009.30 1009.77 1010.21 1010.09 1010.30 1011.26 1011.66 1010.56 1010.27 1009.51 1009.48 1011.11 1012.57 1013.04 1012.20 1012.19 1012.75 1013.29 1013.75 1014.00 1013.89 1013.31 1013.18 1012.99 1012.88 1012.98 1013.14 1013.23 1013.71 1013.99 1014.16 1014.36 1014.91 1015.14 1015.34 1015.60 1015.90 1016.22 1016.15
1008.49 1008.40 1007.53 1006.50 1005.84 1006.35 1007.14 1008.36 1008.37 1008.94 1009.10 1009.21 1009.70 1010.30 1010.87 1011.19 1011.86 1011.46 1010.67 1010.54 1009.80 1011.64 1012.63 1012.77 1012.35 1012.11 1012.48 1012.94 1013.32 1013.63 1013.33 1013.07 1012.97 1012.93 1012.84 1012.77 1012.76 1012.88 1013.11 1013.36 1013.60 1013.85 1014.36 1014.83 1015.20 1015.45 1015.64 1016.02 1016.21
1007.87 1008.04 1007.39 1007.11 1006.48 1006.62 1007.23 1009.04 1009.38 1009.23 1009.54 1010.05 1010.03 1010.45 1010.90 1010.77 1011.53 1012.27 1011.80 1011.57 1011.40 1012.12 1012.66 1012.07 1012.34 1012.09 1012.52 1012.82 1013.31 1013.53 1013.43 1013.10 1013.05 1012.86 1012.88 1012.68 1012.46 1012.51 1012.78 1012.77 1012.99 1013.40 1013.83 1014.32 1014.71 1015.07 1015.36 1015.78 1015.99
1007.31 1006.20 1006.71 1007.08 1007.11 1007.37 1007.55 1009.23 1009.40 1009.35 1009.96 1010.35 1009.85 1010.59 1010.70 1010.62 1011.08 1011.69 1011.87 1012.36 1012.57 1012.71 1011.99 1012.57 1012.54 1012.35 1012.48 1012.75 1013.42 1013.58 1013.63 1013.69 1013.13 1013.08 1012.89 1012.79 1012.36 1012.28 1012.37 1012.46 1012.68 1013.04 1013.42 1013.84 1014.23 1014.62 1014.99 1015.48 1015.86
1006.28 1005.78 1006.52 1006.78 1007.50 1008.05 1008.43 1009.38 1009.66 1009.60 1010.29 1010.25 1009.59 1010.12 1010.08 1010.31 1010.51 1011.15 1011.65 1012.66 1012.85 1012.41 1013.02 1013.25 1012.99 1012.91 1012.93 1012.94 1013.27 1013.57 1013.69 1013.62 1013.24 1013.25 1013.13 1012.73 1012.26 1011.98 1011.99 1012.14 1012.51 1012.77 1013.10 1013.46 1013.91 1014.30 1014.63 1014.99 1015.30
1005.61 1006.11 1007.15 1007.87 1008.68 1009.19 1009.00 1009.36 1009.43 1009.79 1009.23 1009.00 1008.35 1008.51 1009.52 1009.88 1010.37 1011.06 1011.49 1011.68 1011.84 1011.71 1012.04 1012.65 1012.73 1012.81 1012.89 1013.41 1013.75 1013.74 1013.87 1013.77 1013.54 1013.41 1013.13 1012.66 1012.24 1011.88 1011.83 1011.83 1012.10 1012.35 1012.70 1013.17 1013.54 1013.90 1014.29 1014.58 1014.76
1005.65 1007.11 1008.15 1009.42 1010.04 1010.26 1009.37 1009.42 1008.95 1008.88 1008.62 1008.53 1008.18 1008.10 1009.34 1010.25 1010.76 1011.00 1011.82 1011.61 1011.21 1011.28 1011.61 1012.34 1012.55 1012.98 1013.40 1013.72 1013.90 1013.87 1013.98 1013.74 1013.91 1013.30 1012.86 1012.67 1012.41 1012.02 1011.79 1011.73 1011.92 1012.18 1012.43 1012.85 1013.26 1013.61 1013.94 1014.30 1014.62
1005.46 1006.67 1008.29 1009.76 1011.06 1010.70 1009.73 1009.37 1008.45 1008.48 1008.52 1008.29 1008.36 1009.53 1010.12 1011.01 1011.17 1011.35 1011.13 1011.39 1011.69 1011.90 1012.37 1012.46 1012.68 1013.04 1013.26 1013.50 1013.74 1014.00 1014.05 1014.04 1014.07 1013.28 1012.87 1012.77 1012.23 1011.90 1011.75 1011.74 1011.87 1012.09 1012.36 1012.68 1013.05 1013.39 1013.74 1013.98 1014.21
1005.31 1006.34 1007.24 1009.37 1011.08 1011.14 1010.28 1009.41 1008.73 1008.84 1009.30 1009.42 1009.73 1010.39 1009.95 1012.79 1011.04 1009.35 1010.45 1011.28 1011.92 1012.14 1012.30 1012.62 1012.96 1013.00 1013.32 1013.51 1013.76 1014.09 1014.11 1014.02 1013.92 1013.33 1013.00 1012.74 1012.30 1011.91 1011.61 1011.60 1011.91 1012.22 1012.38 1012.55 1012.85 1013.12 1013.43 1013.72 1014.00
1004.18 1005.39 1007.31 1009.29 1010.92 1011.40 1010.73 1010.05 1009.68 1009.81 1010.11 1010.45 1010.33 1010.11 1010.31 1011.57 1011.29 1011.12 1010.99 1010.99 1011.67 1011.70 1012.29 1012.88 1013.12 1013.15 1013.38 1013.86 1014.09 1014.10 1013.97 1014.00 1013.83 1013.59 1013.30 1013.04 1012.60 1012.07 1011.66 1011.60 1011.72 1012.05 1012.31 1012.53 1012.72 1013.03 1013.37 1013.63 1013.85
1004.40 1005.41 1007.15 1008.86 1010.00 1010.71 1010.84 1010.23 1008.30 1008.85 1009.52 1009.72 1009.79 1008.79 1008.38 1008.35 1010.97 1010.45 1010.86 1010.77 1011.55 1012.19 1012.31 1012.43 1012.64 1013.32 1013.49 1013.79 1014.18 1014.20 1014.08 1014.01 1013.97 1013.89 1013.68 1013.41 1013.01 1012.58 1012.19 1012.04 1011.84 1012.06 1012.38 1012.47 1012.66 1012.92 1013.16 1013.52 1013.76
1003.87 1004.80 1006.11 1008.45 1009.96 1010.40 1010.17 1009.01 1008.33 1008.22 1008.61 1009.01 1009.00 1008.67 1008.94 1009.74 1010.46 1010.20 1010.87 1010.30 1011.78 1012.22 1012.35 1012.61 1012.91 1013.01 1013.40 1013.58 1013.91 1014.30 1014.20 1014.11 1014.10 1014.12 1014.04 1013.76 1013.52 1013.16 1012.78 1012.53 1012.42 1012.28 1012.34 1012.68 1012.91 1013.08 1013.37 1013.55 1013.74
Wind_Speed
8 6 2 1 8 7 8 7 8 6 5 5 3 2 3 3 1 4 5 10 18 15 13 13 17 17 17 16 16 17 17 17 17 16 17 17 16 16 16 14 13 13 11 11 10 8 9 11 12
5 5 1 2 8 6 3 6 7 4 6 3 8 7 7 5 3 9 8 10 17 15 12 12 17 17 17 16 16 16 16 17 16 15 15 15 15 14 15 15 13 12 11 9 10 9 10 12 13
6 2 3 7 4 5 4 6 7 4 6 7 2 4 1 1 5 9 8 16 14 12 11 12 17 17 17 16 15 15 15 15 16 15 14 13 13 13 13 12 12 11 11 9 9 9 8 11 12
2 4 5 6 7 1 6 12 9 5 4 3 1 1 1 1 9 7 16 15 13 11 9 13 16 16 16 16 15 15 14 14 14 15 13 12 11 11 11 10 8 8 9 9 8 8 7 9 11
3 2 5 5 4 4 6 13 6 3 1 2 1 1 4 5 11 17 15 14 13 11 8 10 15 16 16 16 16 15 14 14 14 14 13 12 11 11 10 8 6 6 6 8 8 8 8 7 9
4 3 6 3 2 4 6 13 5 2 2 2 3 3 4 4 15 13 14 11 10 11 9 8 13 15 15 16 16 15 15 15 14 14 13 12 11 11 10 9 7 6 5 6 6 7 8 8 8
6 4 4 4 2 4 5 4 4 3 5 2 5 4 1 5 9 13 11 9 10 10 10 7 7 11 15 15 16 16 16 15 14 14 13 13 12 10 9 8 7 6 6 5 6 7 8 7 10
5 5 6 1 4 4 2 4 1 3 3 2 4 5 6 6 12 9 9 7 6 6 5 4 4 5 7 9 16 17 16 16 16 15 14 12 12 11 10 8 7 7 7 7 6 7 7 7 6
3 5 1 8 6 6 6 5 3 4 4 1 2 3 8 16 14 12 11 9 5 4 5 6 4 4 3 5 10 14 17 17 17 15 15 11 3 5 8 8 9 9 8 7 7 7 7 8 6
5 3 7 7 4 4 8 8 8 4 4 3 3 6 17 16 14 13 10 9 6 5 5 5 6 5 5 5 5 5 6 4 5 5 6 4 4 3 4 7 9 9 9 8 7 7 7 7 3
3 3 3 6 11 7 9 13 9 5 4 7 9 14 16 13 9 10 10 11 12 8 5 6 6 4 4 4 3 2 2 3 3 5 5 5 4 4 3 2 2 2 7 2 5 4 3 4 3
2 6 4 9 11 8 7 4 8 10 3 9 11 14 14 12 10 9 9 10 9 8 8 6 7 7 6 3 3 3 3 3 3 3 5 4 2 3 3 3 3 3 2 3 3 2 3 4 5
4 3 3 6 10 6 8 10 7 12 10 18 17 14 11 9 6 1 6 7 7 8 8 9 8 8 7 5 3 4 3 3 3 4 5 4 4 4 4 4 3 3 3 4 4 4 4 4 4
3 7 9 7 6 3 4 3 3 4 14 19 16 12 13 15 13 2 5 6 10 8 8 9 10 9 8 6 5 4 4 4 4 4 5 6 4 4 4 4 4 4 4 4 4 4 4 4 3
6 7 9 5 3 6 4 5 3 10 15 16 14 11 7 2 15 10 2 6 8 6 7 10 9 6 7 7 6 5 4 4 4 4 5 6 6 6 6 4 4 4 4 4 3 4 2 2 3
5 3 5 2 1 4 4 4 2 14 18 14 11 6 6 5 6 8 7 4 5 4 8 6 6 7 6 5 5 4 4 4 4 4 4 6 6 6 5 4 4 4 3 4 3 3 3 3 4
5 5 3 8 5 1 8 5 7 10 15 13 7 9 7 6 10 10 14 12 9 7 4 7 7 7 7 6 4 4 5 4 5 4 4 6 6 7 5 5 5 4 4 3 3 3 3 3 3
4 4 3 5 2 2 7 2 2 5 9 10 8 6 6 8 9 6 3 6 2 4 7 8 6 7 7 3 2 1 3 4 3 5 5 6 6 8 7 6 6 5 4 4 3 4 3 2 4
4 5 6 13 4 3 6 8 15 10 7 9 5 8 5 7 5 5 9 12 14 5 8 10 8 7 4 2 1 2 4 3 3 4 6 7 8 9 9 7 6 5 6 6 5 3 4 4 2
5 5 12 11 2 5 4 4 7 9 5 14 13 7 6 5 5 2 5 11 20 1 7 8 6 6 5 3 1 2 3 3 2 1 4 5 5 6 8 9 8 7 4 5 5 4 3 1 3
5 6 6 9 4 2 2 4 5 4 1 1 9 2 4 8 9 8 7 7 4 10 10 8 10 6 3 4 1 1 2 2 2 2 3 4 5 5 6 7 6 7 6 6 5 5 6 4 4
6 9 8 6 2 2 3 4 6 5 3 7 14 6 6 10 8 11 10 5 4 8 7 16 8 4 4 5 2 2 0 3 2 2 3 5 5 5 6 6 6 6 6 6 6 6 4 4 4
12 6 4 4 3 3 2 4 4 4 4 8 11 8 12 9 11 13 11 5 6 8 9 8 5 3 4 4 3 2 1 3 3 4 5 6 5 5 6 6 6 6 5 5 6 5 5 4 4
10 3 6 5 4 3 5 3 3 4 6 5 10 12 10 7 7 8 5 5 5 6 8 6 7 4 5 4 2 1 1 4 4 4 4 4 4 3 5 5 5 6 5 5 5 5 6 6 4
6 7 4 5 6 6 2 3 7 5 4 3 11 12 6 3 3 6 6 6 3 3 6 7 7 6 5 4 1 3 3 4 6 5 3 4 3 2 3 5 5 4 5 5 5 5 5 5 5
5 9 8 6 4 5 3 3 4 2 5 6 6 11 12 9 4 3 3 3 3 5 8 6 7 6 5 4 3 3 2 3 4 3 3 4 2 1 1 2 3 5 5 5 5 3 4 5 4
3 4 5 9 3 3 4 5 4 2 8 14 15 16 19 18 10 9 5 5 7 7 6 7 6 5 5 5 4 1 2 3 4 5 4 3 4 3 1 4 3 4 5 6 5 4 4 4 5
7 6 4 4 4 4 4 3 7 6 5 5 15 19 16 16 4 4 5 8 6 7 6 6 6 6 5 5 3 3 1 1 3 4 6 6 5 6 5 1 2 3 3 3 4 3 3 5 4
2 1 6 7 5 7 3 8 7 12 12 14 15 18 20 20 10 7 7 7 7 6 6 6 7 7 6 5 4 3 2 2 4 4 5 5 5 5 6 5 5 3 3 3 3 3 3 5 6
4 7 7 7 4 1 5 8 2 9 12 10 8 13 15 9 6 9 7 13 9 9 7 8 6 7 6 6 5 4 2 1 4 5 5 5 5 5 6 7 7 7 7 5 5 6 5 6 8
Wind_Direction
257 206 183 248 55 60 34 2 323 333 27 343 66 119 149 25 162 214 136 148 140 147 155 155 151 151 146 141 137 137 138 136 137 137 136 135 136 139 135 136 137 143 144 145 139 132 138 136 137
271 133 120 35 82 67 350 328 346 311 16 43 54 52 34 359 56 108 115 155 147 147 154 157 157 154 149 149 148 145 142 143 141 138 138 139 136 133 134 135 136 139 139 144 138 134 137 136 137
227 45 66 96 86 123 179 258 246 254 312 316 81 28 339 106 74 146 130 144 140 150 157 163 161 158 156 155 154 152 148 147 144 140 138 141 142 136 134 136 138 145 142 145 144 140 146 137 142
101 5 31 83 150 48 168 249 234 103 343 288 22 58 309 288 160 136 135 140 140 148 157 168 164 162 164 162 159 158 157 151 146 143 143 144 146 142 138 139 148 149 151 153 157 153 144 145 146
66 61 52 67 33 122 235 231 345 346 36 21 342 249 17 20 105 125 134 142 144 146 152 167 168 169 170 168 165 164 162 155 153 151 151 152 156 153 146 148 146 155 160 170 170 176 150 154 152
35 93 57 73 227 175 226 233 291 318 318 342 90 70 40 98 121 135 143 146 150 146 145 163 171 172 172 170 168 165 165 164 164 162 160 161 164 162 159 161 160 165 160 177 185 178 167 162 162
104 68 103 182 312 277 228 169 232 346 272 315 162 82 50 133 135 138 138 139 148 155 149 158 168 173 171 170 169 170 170 172 170 169 170 170 170 171 173 166 165 167 170 181 192 193 173 183 168
105 93 119 312 211 268 291 184 54 144 281 10 168 157 170 168 150 106 102 121 126 143 148 138 169 164 161 168 170 174 173 174 176 176 177 179 178 179 182 169 171 180 184 182 191 204 184 181 188
126 56 360 165 193 232 154 204 136 191 210 284 191 206 130 126 122 111 113 126 121 136 167 155 148 133 144 161 178 176 175 178 183 182 181 182 165 192 194 184 191 186 194 190 194 210 200 181 202
87 112 217 178 209 216 173 191 177 195 174 185 205 80 125 132 140 138 143 147 152 166 187 175 164 167 170 187 185 165 171 172 175 176 180 147 158 200 202 202 210 208 200 197 203 207 216 189 166
171 204 250 236 193 202 183 215 182 202 219 197 194 142 133 129 139 149 160 167 176 177 176 177 170 178 181 202 181 155 164 168 172 178 169 164 162 196 206 213 236 229 222 225 187 205 213 164 154
306 251 241 285 289 170 200 166 205 182 219 141 153 129 127 133 154 165 175 174 174 174 183 182 183 171 193 202 205 180 193 159 179 184 177 150 170 204 215 214 210 199 211 208 203 176 199 199 171
205 273 262 276 304 179 188 211 188 182 97 120 127 117 108 86 39 196 184 184 171 180 191 196 187 185 186 188 179 182 190 186 180 175 174 172 180 189 183 210 200 196 200 196 206 191 192 211 196
264 278 289 212 258 5 185 92 115 68 132 117 118 128 164 154 136 37 233 210 182 188 198 189 197 196 175 185 191 202 189 188 183 184 187 193 194 182 197 207 226 212 197 210 197 201 190 205 202
304 327 342 231 211 201 145 36 66 159 133 129 131 178 164 233 135 132 344 266 216 177 193 201 193 185 188 189 192 189 200 178 201 213 209 199 187 193 194 197 217 227 212 221 208 193 188 227 208
357 35 3 13 229 242 97 217 228 168 139 146 148 191 238 169 128 106 61 331 285 213 181 200 208 172 191 205 201 191 205 198 211 213 209 206 205 199 203 207 212 209 202 207 196 179 187 195 211
345 249 228 327 301 69 53 145 225 186 147 149 171 209 227 218 37 50 102 80 43 338 198 184 193 185 184 194 221 207 211 214 207 210 209 212 209 202 197 202 224 190 194 215 201 196 164 186 216
227 285 308 258 278 340 91 56 76 184 162 156 201 223 241 88 89 87 70 99 69 321 305 200 184 190 182 169 142 269 228 243 210 214 213 210 216 212 208 206 213 182 183 213 210 195 174 192 204
331 310 288 279 245 334 118 166 192 190 170 169 207 238 264 101 145 107 131 184 228 190 320 258 181 186 146 105 168 228 231 215 249 237 223 210 211 207 204 214 211 188 186 201 203 204 183 209 178
231 278 284 294 214 167 84 182 223 188 223 174 188 208 188 151 141 226 201 184 195 182 299 276 237 180 180 138 160 250 254 258 240 243 269 259 237 203 199 205 197 191 175 184 195 183 169 198 174
240 202 243 234 357 20 16 94 255 259 317 206 229 133 198 170 171 187 206 220 61 136 271 260 282 207 151 127 102 318 311 329 327 291 274 246 227 222 218 209 202 187 181 190 191 180 176 187 215
283 213 228 239 75 278 65 267 256 216 189 233 231 187 207 215 191 191 218 218 229 130 188 251 255 174 138 141 149 192 268 282 270 282 294 284 250 234 226 213 197 189 186 191 195 186 181 146 187
234 284 230 217 124 100 297 84 287 64 242 247 254 191 212 217 214 217 223 182 213 159 165 252 197 155 145 118 115 101 289 283 313 311 294 285 278 241 225 204 187 188 179 193 182 170 182 177 167
265 178 43 57 78 28 274 132 278 189 237 212 235 231 210 214 196 220 215 192 199 139 155 163 163 139 98 96 70 94 306 304 319 299 296 306 292 271 224 201 188 184 179 184 192 188 184 199 204
90 50 351 1 14 222 250 43 234 210 248 170 226 243 260 31 214 158 198 189 143 152 135 169 149 134 125 133 102 39 326 335 287 281 277 295 306 303 256 196 187 179 183 184 176 174 186 186 199
195 158 156 191 187 247 281 253 257 281 326 272 123 78 58 19 5 240 236 134 152 147 171 154 144 139 151 140 80 13 334 346 293 314 337 318 299 281 349 213 192 187 182 174 176 174 190 186 197
200 206 185 104 48 72 264 290 331 97 49 70 78 82 75 329 233 149 133 158 167 175 159 147 151 147 165 133 125 262 33 5 342 3 360 335 345 328 18 147 180 200 190 182 172 188 204 186 192
154 161 84 11 130 226 283 260 230 131 171 156 115 117 119 228 298 121 171 152 162 166 146 142 160 155 163 147 165 199 146 351 11 15 13 0 359 6 28 43 161 181 207 187 172 179 173 179 179
29 238 45 114 127 161 189 260 209 173 175 183 170 161 158 211 193 188 179 140 164 170 156 158 154 161 162 158 178 198 210 82 34 33 18 10 11 13 32 26 80 99 203 180 170 158 159 147 149
170 213 143 125 234 127 155 266 38 170 180 174 181 180 192 167 188 196 178 154 169 182 170 168 166 160 176 169 164 192 206 63 53 41 17 19 23 22 32 38 54 68 82 90 99 112 115 134 137